sat.trackr.live / text

‹ back to catalog

KUIPER-00524

NORAD 68892 · 2026-095AE

PAYLOAD ACTIVE UNKNOWN

§ Identity

Operator
Country
US
Launch date
2026-04-28
Launch site
AFETR
Launch vehicle
Mass (kg)
RCS (m²)

External: N2YO · Heavens-Above · Gunter

§ Orbital elements

Epoch: 2026-09-20T03:45:56.573856Z

Period
97.30 min
Inclination
51.8949°
Eccentricity
0.0000702
Mean motion
14.79926825 rev/d
Perigee alt
629.1 km
Apogee alt
630.0 km
Semi-major
7,007.7 km
B*
-2.4451e-5
RAAN
180.6870°
Arg perigee
58.6113°
Mean anomaly
301.4918°
Rev number
2,181

§ Raw data

KUIPER-005241 68892U 26095AE  26263.15690479 -.00000407  00000+0 -24451-4 0  99972 68892  51.8949 180.6870 0000702  58.6113 301.4918 14.79926825 21815

JSON: /api/v1/satellites/68892 · /tle

For live sub-satellite position, see the globe view (requires WebGL).

§ Visibility from observer

Set your observer location to see the next 7 days of passes ≥ 10°. The values pass through the URL so the page stays shareable.

No JS? Fill the form by hand. The geolocation button needs JavaScript.